TURKSAT 4A

Last updated on Nov. 13, 2019, 4:20 a.m. UTC

1 39522U 14007A   19316.12334010  .00000159  00000-0  00000+0 0  9991
2 39522   0.0111 267.2294 0004849 340.3540 249.8137  1.00273821 21058
UTC
Height (km)
Latitude
Longitude
Inclination
Orbital Period
UTC large
Height (km)
Speed (km/s)
/
Latitude / Longitude
Inclination (degrees)
Orbital Period (minutes)
Azimuth
Elevation
Range (km)
Doppler Factor
iOS Compass Heading
iOS Angle

Next 30 passes for location: Hong Kong

Rise time Rise Azimuth (degrees) Set time Set Azimuth (degrees) Duration Max altitude (degrees)

No matching passes for this satellites